EW6143 Weather Reports


time (UTC)temp
F
wind
direction
speed
knots
gust
knots
rain 1hr
in
rain 24hr
in
rain mn
in
humidity
%
barometer
mb
20260504034532 68 328 0.9 3.5 0.00 0.00 0.00 54 1016.0
20260504033030 68 306 0.9 3.5 0.00 0.00 0.00 53 1016.0
20260504031530 69 288 0.9 6.1 0.00 0.00 0.00 51 1016.0
20260504030029 70 292 1.7 4.3 0.00 0.00 0.00 50 1015.9
20260504024531 70 326 1.7 4.3 0.00 0.00 0.00 49 1015.8
20260504023031 71 300 1.7 3.5 0.00 0.00 0.00 48 1015.8
20260504021530 71 319 1.7 7.0 0.00 0.00 0.00 47 1015.8
20260504020031 72 300 2.6 6.1 0.00 0.00 0.00 45 1015.6
20260504014534 73 286 2.6 6.1 0.00 0.00 0.00 44 1015.8
20260504013039 73 319 2.6 7.8 0.00 0.00 0.00 43 1015.6
20260504011530 74 313 1.7 7.8 0.00 0.00 0.00 41 1015.5
20260504010028 75 300 2.6 7.8 0.00 0.00 0.00 40 1015.4
20260504004529 76 338 2.6 10.4 0.00 0.00 0.00 38 1015.5
20260504003033 76 313 4.3 11.3 0.00 0.00 0.00 38 1015.4
20260504001537 77 315 4.3 12.2 0.00 0.00 0.00 38 1015.4
20260504000032 78 329 5.2 11.3 0.00 0.00 0.00 37 1015.7
20260503234534 78 325 5.2 13.9 0.00 0.00 0.00 37 1015.7
20260503233037 78 344 3.5 10.4 0.00 0.00 0.00 38 1015.7
20260503231534 79 344 5.2 10.4 0.00 0.00 0.00 37 1015.8
20260503230031 80 5 4.3 10.4 0.00 0.00 0.00 32 1015.8
20260503224529 80 11 3.5 12.2 0.00 0.00 0.00 35 1015.9
20260503223032 80 360 3.5 9.6 0.00 0.00 0.00 33 1016.0
20260503221535 81 337 3.5 13.9 0.00 0.00 0.00 33 1016.1
20260503220029 81 339 5.2 11.3 0.00 0.00 0.00 32 1016.2
20260503214528 81 346 6.1 12.2 0.00 0.00 0.00 33 1016.4
20260503213033 81 10 6.1 13.0 0.00 0.00 0.00 32 1016.6
20260503211532 82 9 5.2 12.2 0.00 0.00 0.00 31 1016.8
20260503210029 81 307 4.3 11.3 0.00 0.00 0.00 33 1017.0
20260503204530 82 322 5.2 13.9 0.00 0.00 0.00 32 1017.4
20260503203036 81 22 5.2 12.2 0.00 0.00 0.00 32 1017.7
20260503201530 82 360 4.3 8.7 0.00 0.00 0.00 31 1018.0
20260503200031 81 17 1.7 13.0 0.00 0.00 0.00 33 1018.2
20260503194531 81 347 4.3 12.2 0.00 0.00 0.00 32 1018.6
20260503193031 81 5 6.1 14.8 0.00 0.00 0.00 35 1018.7
20260503191533 81 348 3.5 13.0 0.00 0.00 0.00 34 1018.8
20260503190028 81 340 4.3 13.9 0.00 0.00 0.00 34 1019.1
20260503184528 82 318 3.5 9.6 0.00 0.00 0.00 36 1019.2
20260503183031 80 58 6.1 13.0 0.00 0.00 0.00 35 1019.5
20260503181530 81 350 2.6 11.3 0.00 0.00 0.00 39 1019.7
20260503180030 79 28 4.3 12.2 0.00 0.00 0.00 38 1020.1
20260503174530 80 321 3.5 10.4 0.00 0.00 0.00 41 1020.3
20260503173031 79 340 4.3 11.3 0.00 0.00 0.00 44 1020.6
20260503171530 78 38 4.3 12.2 0.00 0.00 0.00 43 1020.8
20260503081531 55 0 0.0 0.0 0.00 0.00 0.00 72 1020.0
20260503071532 57 0 0.0 0.0 0.00 0.00 0.00 66 1020.2
20260503054535 61 0 0.0 0.0 0.00 0.00 0.00 60 1020.1
20260503053026 61 0 0.0 0.0 0.00 0.00 0.00 60 1020.2
20260503051525 61 314 0.9 2.6 0.00 0.00 0.00 60 1020.0
20260503050036 61 0 0.0 0.0 0.00 0.00 0.00 62 1019.9
20260503044531 61 0 0.0 0.0 0.00 0.00 0.00 64 1020.0
20260503043030 62 0 0.0 0.0 0.00 0.00 0.00 65 1020.0
20260503041537 62 0 0.0 0.0 0.00 0.00 0.00 65 1019.9
20260503040028 62 0 0.0 0.0 0.00 0.00 0.00 63 1020.0